User: anonymous   Login
Location: Caltech
(34.1382°N, 118.1253°W)
Time: 23:10:31
(UTC-07:00)
Language:

Iridium 65 - Orbit

View from above orbital plane
View from above orbital plane
View from above satellite
View from above satellite

Ground track
Ground track

The orbit data is extracted from the following two-line orbital elements,

1 25288U 98021D   15148.47581796  .00000066  00000-0  16413-4 0  9992
2 25288 086.3973 177.6695 0002190 091.3207 022.8968 14.34215704897413
Epoch (UTC): 28 May 2015 11:25:10
Eccentricity: 0.0002190
inclination: 86.3973°
perigee height: 776 km
apogee height: 779 km
right ascension of ascending node: 177.6695°
argument of perigee: 91.3207°
revolutions per day: 14.34215704
mean anomaly at epoch: 22.8968°
orbit number at epoch: 89741

The dashed part of the orbit path shows where the satellite is in the earth's shadow,  

DLR